Starlink 30832

operational
NORAD ID: 58354 Int'l Des: 2023-177 Owner: SPXS Country: US Constellation: starlink
LEOCIRCULAR

关于 Starlink 30832

正在加载描述...

实时位置

正在加载3D地球...

即将过境

高度历史

Altitude vs Time

uPlot chart will show altitude changes over time

两行轨道根数

1 58354U 23177D 26036.75330857 .00001387 00000-0 11773-3 0 9991
2 58354 43.0032 164.9544 0001429 252.4239 107.6448 15.02536414123361
Epoch: Feb 5, 2026 • Age: 16 hours

当前状态

高度 563.0 km
速度 7.59 km/s
星下点 42.31°N, 28.59°W
发射日期 Nov 18, 2023
运行时间 2.2 years
类型 internet

技术详情

分类 Payload
质量 730.00 kg
干质量 700.00 kg
总质量 730.00 kg
长度 0.30 m
直径 4.10 m
跨度 29.00 m
形状 Box + pan
制造商 SPXS
平台类型 Starlink V2M
阶段状态 In Orbit
所有者/国家 SPXS/US

大型星座

Loading constellations...